Home > Time Zones > World Clock > Weather > U.S.A. > Bend > Past weeks

Flag for U.S.A. Weather past 2 weeks in Bend, Oregon, U.S.A.

Now
59 °F

Sunny.


Feels Like: 57 °F
Forecast: 34 / 61 °F
Wind: 9 mph from Northeast

Location: Roberts Field Airport


UV Index: 5 (Moderate)

Visibility: 10 mi


Pressure: 29.97 "Hg

Humidity: 17%

Dew point: 14 °F

Location of BendLocation

Historic Weather in Bend

°F

Bend temperature yesterday

Maximum temperature yesterday: 51 °F (at 4:56 PM)
Minimum temperature yesterday: 42 °F (at 3:56 AM)
Average temperature yesterday: 46 °F

Past Weeks' High & Low Weather Summary

 TemperatureHumidityPressure
High75 °F (Apr 7, 3:56 PM)93% (Apr 7, 4:56 AM)30.32 "Hg (Apr 7, 4:56 AM)
Low25 °F (Apr 14, 6:56 AM)13% (Apr 14, 1:56 PM)29.83 "Hg (Apr 17, 9:56 AM)
Average47 °F53%30.07 "Hg
* Reported Apr 3 4:56 PM — Apr 18 4:56 PM, Bend, Weather by CustomWeather, © 2014

Note: Actual official high and low records may vary slightly from our data, if they occured in-between our weather recording intervals... More about our weather records

Advertising

Historic Weather Conditions — Data for Previous 24 hours

 ConditionsComfort  
Time TempWeatherWind HumidityBarometerVisibility
4:56 PM
Apr 18
59 °FSunny.9 mph17%29.97 "Hg10 mi
3:56 PM58 °FSunny.5 mph16%29.98 "Hg10 mi
2:56 PM58 °FSunny.8 mph15%30.01 "Hg10 mi
1:56 PM55 °FSunny.6 mph16%30.03 "Hg10 mi
12:56 PM54 °FSunny.3 mph19%30.04 "Hg10 mi
11:56 AM52 °FSunny.5 mph27%30.06 "Hg10 mi
10:56 AM48 °FSunny.No wind39%30.07 "Hg10 mi
9:56 AM45 °FSunny.3 mph51%30.07 "Hg10 mi
8:56 AM40 °FSunny.5 mph63%30.08 "Hg10 mi
7:56 AM37 °FSunny.3 mph70%30.08 "Hg10 mi
6:56 AM28 °FClear.6 mph85%30.08 "Hg10 mi
5:56 AM31 °FClear.No wind79%30.05 "Hg10 mi
4:56 AM33 °FClear.6 mph75%30.04 "Hg10 mi
3:56 AM34 °FClear.3 mph79%30.03 "Hg10 mi
2:56 AM37 °FClear.3 mph76%30.00 "Hg10 mi
1:56 AM39 °FPassing clouds.7 mph76%29.98 "Hg10 mi
12:56 AM41 °FPassing clouds.6 mph67%29.96 "Hg10 mi
11:56 PM
Apr 17
42 °FClear.5 mph71%29.94 "Hg10 mi
10:56 PM45 °FClear.9 mph65%29.91 "Hg10 mi
9:56 PM46 °FPassing clouds.9 mph66%29.90 "Hg10 mi
8:56 PM45 °FPassing clouds.6 mph76%29.89 "Hg10 mi
7:56 PM47 °FOvercast.5 mph71%29.87 "Hg10 mi
6:56 PM49 °FOvercast.5 mph64%29.87 "Hg10 mi
Weather by CustomWeather, © 2014

See weather overview